World > North America > United States > Ohio

Darbydale, Ohio Regional Weather

Lat: 39.85N, Lon: 83.18W
Wx Zone: OHZ055
Warning FLW WEATHER ALERT - (More Info. Click Here) Warning
Feedback

Darbydale, OH Regional Weather

Expires:201907211100;;399506
ASUS41 KCLE 211012
RWRCLE
OHIO REGIONAL WEATHER ROUNDUP
NATIONAL WEATHER SERVICE WILMINGTON, OH
600 AM EDT SUN JUL 21 2019

NOTE: "FAIR" INDICATES FEW OR NO CLOUDS BELOW 12,000 FEET WITH NO
SIGNIFICANT WEATHER AND/OR OBSTRUCTIONS TO VISIBILITY.


OHZ036-037-039>041-045>050-054>059-063>069-073>076-082>088-211100-
  CENTRAL AND SOUTHEAST OHIO
  
CITY           SKY/WX    TMP DP  RH WIND       PRES   REMARKS
COLUMBUS       FAIR      77  71  82 S5        29.94R                  
OSU AIRPORT    FAIR      76  72  87 SW6       29.94R                  
BOLTON FIELD   FAIR      76  72  89 W3        29.96R                  
RICKENBACK AFB FAIR      73  72  96 CALM      29.94R                  
NEWARK         FAIR      74  71  91 CALM      29.95R FOG              
MARION         FAIR      77  72  84 SW6       29.95R                  
LANCASTER      MOCLDY    75  72  90 N3        29.96R                  
ZANESVILLE     FAIR      73  70  90 S3        29.95S                  
NEW PHILLY     CLOUDY    75  73  93 CALM      29.94S FOG              
$$
  

SKY/WX - Weather  TMP - Temperature  DP - Dew Point  RH - Relative Humidity
WIND - Wind Direction/Speed PRES - Barometric Pressure VSB - Visibility
WCI - Wind Chill Index E13G22 Wind - East Wind 13 mph/Gusts of 22 mph